Powrót do katalogu

STARLINK-34177

AktywnyŁącznośćVLEO
NORAD 64170·PAYLOAD·🇺🇸 United States

Wystrzelony May 28, 2025 z Cape Canaveral Space Force Station

Loading…

Następne Przeloty (najbliższe 24 godziny)

TLE

ŚwieżeSource: CelesTrak SupGP

Epoka: Sep 14, 2026, 20:56 UTC

1 64170C 25113A   26257.87270833  .00016521  00000+0  53141-3 0  2578
2 64170  53.1583 290.7632 0001510  86.5363 250.5045 15.31684276    17

Śledź STARLINK-34177 w czasie rzeczywistym z AllMySat

Download on the App Store